sat.trackr.live / text

‹ back to catalog

STARLINK-3577

NORAD 51884 · 2022-022AJ

PAYLOAD ACTIVE UNKNOWN

§ Identity

Operator
Country
US
Launch date
2022-03-03
Launch site
AFETR
Launch vehicle
Mass (kg)
RCS (m²)

Purposes: comms

External: N2YO · Heavens-Above · Gunter

§ Orbital elements

Epoch: 2026-05-25T00:28:10.801344Z

Period
95.44 min
Inclination
53.2133°
Eccentricity
0.0001542
Mean motion
15.08837561 rev/d
Perigee alt
538.7 km
Apogee alt
540.8 km
Semi-major
6,917.9 km
B*
6.8862e-5
RAAN
16.4613°
Arg perigee
79.5449°
Mean anomaly
280.5717°
Rev number
23,485

§ Raw data

STARLINK-35771 51884U 22022AJ  26145.01956946  .00000808  00000+0  68862-4 0  99912 51884  53.2133  16.4613 0001542  79.5449 280.5717 15.08837561234852

JSON: /api/v1/satellites/51884 · /tle

For live sub-satellite position, see the globe view (requires WebGL).

§ Visibility from observer

Set your observer location to see the next 7 days of passes ≥ 10°. The values pass through the URL so the page stays shareable.

No JS? Fill the form by hand. The geolocation button needs JavaScript.